Content
SEND FEEDBACK

Daily
Averages
Monthly
Summary
United States of America

BLACK ROCK, OREGON


Home > North America > United States > Oregon
Elevation: 862 feet     Latitude: 44 51N     Longitude: 123 27W

WEATHER
 
SELECT A DAY
Number of Records: 445,832;   Date Range: 1/1/95 - 9/30/14
 
SHARE

PRINT THIS DATA

[ ← Previous Day ]
WEATHER ALMANAC - JANUARY 23, 2013
[ Next Day → ]
[ °C ]   °F
Weather ElementAverageHighLow
Temperature33.4 °F35.6 °F (10:55 am)30.2 °F (12:35 am)
Dewpoint32.1 °F35.6 °F (5:35 pm)28.4 °F (2:35 am)
Humidity95.2 %100 % (12:35 am)93 % (2:35 am)
Barometer30.01 in30.21 in (11:15 pm)29.91 in (8:35 am)
Wind Speed1.5 mph6.9 mph (8:35 am)
Weather ElementAverage
Visibility4.5 mi
Wind DirectionENE (57.9 °)

Weather ElementTotal
Precipitation0.47 in
Heating Degree Days32.1 (Base 65)
Averaged from 70 records on January 23, 2013
WEATHER CONDITIONS BREAKOUT
WIND DIRECTION BREAKOUT
WEATHER BY HOUR - JANUARY 23, 2013
[ °C ]   °F
Local TimeTemperatureDewpointHumidityBarometerVisibilityWind DirectionWind SpeedGust SpeedPrecipitationEventsConditions
12:35 AM30.2 °F30.2 °F100 %29.98 in5.0 miCalmOvercast
12:55 AM30.2 °F30.2 °F100 %29.97 in5.0 miCalmOvercast
1:15 AM30.2 °F30.2 °F100 %29.97 in6.0 miCalmOvercast
1:35 AM30.2 °F30.2 °F100 %29.97 in7.0 miCalmOvercast
1:55 AM30.2 °F30.2 °F100 %29.98 in6.0 miCalmOvercast
2:15 AM30.2 °F30.2 °F100 %29.97 in5.0 miCalmMostly Cloudy
2:35 AM30.2 °F28.4 °F93 %29.96 in5.0 miCalmMostly Cloudy
2:55 AM30.2 °F30.2 °F100 %29.96 in5.0 miCalmMostly Cloudy
3:15 AM30.2 °F30.2 °F100 %29.96 in6.0 miCalmOvercast
3:35 AM30.2 °F30.2 °F100 %29.94 in6.0 miCalmOvercast
3:55 AM32.0 °F30.2 °F93 %29.94 in5.0 miCalmOvercast
4:15 AM32.0 °F30.2 °F93 %29.95 in6.0 miCalmOvercast
4:35 AM32.0 °F30.2 °F93 %29.92 in7.0 miNNW (330°)3.5 mphOvercast
4:55 AM32.0 °F30.2 °F93 %29.93 in7.0 miCalmOvercast
5:15 AM32.0 °F30.2 °F93 %29.93 in7.0 miCalmMostly Cloudy
5:35 AM32.0 °F30.2 °F93 %29.93 in8.0 miCalmOvercast
5:55 AM32.0 °F30.2 °F93 %29.93 in8.0 miCalmOvercast
6:15 AM32.0 °F30.2 °F93 %29.93 in8.0 miCalmOvercast
6:35 AM32.0 °F30.2 °F93 %29.93 in7.0 miCalmOvercast
6:55 AM32.0 °F30.2 °F93 %29.93 in6.0 miCalmOvercast
7:15 AM32.0 °F30.2 °F93 %29.93 in5.0 miCalmOvercast
7:35 AM32.0 °F30.2 °F93 %29.93 in5.0 miCalmOvercast
7:55 AM32.0 °F30.2 °F93 %29.93 in5.0 miCalmOvercast
8:15 AM32.0 °F32.0 °F100 %29.92 in4.0 miCalmOvercast
8:35 AM33.8 °F33.8 °F100 %29.91 in4.0 miNW (310°)6.9 mphOvercast
8:55 AM33.8 °F32.0 °F93 %29.93 in4.0 miCalmOvercast
9:15 AM33.8 °F32.0 °F93 %29.94 in5.0 miCalmOvercast
9:35 AM33.8 °F33.8 °F100 %29.96 in5.0 miCalmOvercast
9:55 AM33.8 °F32.0 °F93 %29.95 in5.0 miWSW (250°)4.6 mphOvercast
10:15 AM33.8 °F32.0 °F93 %29.94 in6.0 miCalmOvercast
10:35 AM33.8 °F32.0 °F93 %29.95 in5.0 miCalmOvercast
10:55 AM35.6 °F33.8 °F93 %29.97 in6.0 miSE (140°)3.5 mphOvercast
11:15 AM35.6 °F33.8 °F93 %29.97 in5.0 miESE (120°)6.9 mphOvercast
11:35 AM35.6 °F33.8 °F93 %29.97 in5.0 miESE (110°)6.9 mphOvercast
11:55 AM35.6 °F33.8 °F93 %29.96 in5.0 miEast (100°)4.6 mphOvercast
12:15 PM35.6 °F33.8 °F93 %29.95 in5.0 miESE (120°)5.8 mphOvercast
12:35 PM35.6 °F33.8 °F93 %29.96 in4.0 miSSE (160°)5.8 mph0.01 inOvercast
12:55 PM35.6 °F33.8 °F93 %29.97 in4.0 miSSE (160°)4.6 mph0.03 inOvercast
1:15 PM35.6 °F33.8 °F93 %29.96 in3.0 miSouth (170°)4.6 mph0.03 inOvercast
1:35 PM35.6 °F33.8 °F93 %29.96 in4.0 miSouth (180°)4.6 mph0.05 inOvercast
1:55 PM35.6 °F33.8 °F93 %29.96 in4.0 miCalm0.06 inOvercast
2:15 PM35.6 °F33.8 °F93 %29.98 in4.0 miSouth (190°)3.5 mph0.03 inMostly Cloudy
2:35 PM35.6 °F33.8 °F93 %29.98 in3.0 miCalm0.07 inOvercast
2:55 PM35.6 °F33.8 °F93 %30.00 in3.0 miSSE (150°)4.6 mph0.11 inOvercast
3:15 PM35.6 °F33.8 °F93 %30.01 in4.0 miCalm0.02 inMostly Cloudy
3:35 PM35.6 °F33.8 °F93 %30.02 in4.0 miSSE (150°)4.6 mph0.03 inOvercast
3:55 PM35.6 °F33.8 °F93 %30.02 in4.0 miSE (140°)4.6 mph0.03 inOvercast
4:15 PM35.6 °F33.8 °F93 %30.03 in5.0 miSSE (150°)4.6 mphOvercast
4:35 PM35.6 °F33.8 °F93 %30.03 in5.0 miSouth (180°)3.5 mphOvercast
4:55 PM35.6 °F33.8 °F93 %30.04 in5.0 miCalmMostly Cloudy
5:15 PM35.6 °F33.8 °F93 %30.05 in5.0 miCalmOvercast
5:35 PM35.6 °F35.6 °F100 %30.07 in5.0 miCalmOvercast
5:55 PM35.6 °F33.8 °F93 %30.08 in6.0 miCalmOvercast
6:15 PM35.6 °F33.8 °F93 %30.09 in5.0 miCalmOvercast
6:35 PM35.6 °F33.8 °F93 %30.09 in5.0 miENE (60°)3.5 mphOvercast
6:55 PM35.6 °F33.8 °F93 %30.10 in5.0 miCalmOvercast
7:15 PM35.6 °F35.6 °F100 %30.12 in5.0 miCalmOvercast
7:35 PM35.6 °F35.6 °F100 %30.12 in3.0 miCalmOvercast
7:55 PM35.6 °F35.6 °F100 %30.14 in3.0 miWNW (300°)3.5 mphOvercast
8:15 PM35.6 °F35.6 °F100 %30.14 in4.0 miCalmOvercast
8:35 PM35.6 °F33.8 °F93 %30.15 in4.0 miCalmOvercast
8:55 PM33.8 °F32.0 °F93 %30.16 in3.0 miWNW (300°)3.5 mphOvercast
9:15 PM33.8 °F32.0 °F93 %30.16 in0.8 miWest (280°)3.5 mphOvercast
9:55 PM32.0 °F30.2 °F93 %30.17 in0.8 miCalmOvercast
10:15 PM30.2 °F30.2 °F100 %30.18 in0.5 miCalmOvercast
10:35 PM30.2 °F28.4 °F93 %30.19 in0.2 miCalmOvercast
10:55 PM30.2 °F30.2 °F100 %30.20 in0.2 miCalmOvercast
11:15 PM30.2 °F30.2 °F100 %30.21 in0.2 miCalmOvercast
11:35 PM30.2 °F30.2 °F100 %30.21 in0.2 miCalmOvercast
11:55 PM30.2 °F30.2 °F100 %30.21 in0.2 miCalmOvercast
Hourly data recorded from KCVO, located miles away from Black Rock, Oregon







STORIES FROM OUR PARTNERS